^^
Saratoga-Weather Station Historical Data
Daily Summary for May 23, 2020 Units:  Metric    English   Both
Daily Weekly Monthly Yearly Custom
  High: Low: Average:
Temperature: 11.4 °C 7.7 °C 10 °C
Dew Point: 10.5 °C 6 °C 8.6 °C
Humidity: 94% 86% 91%
Wind Speed: 33.8km/h 0km/h 9.2km/h
Wind Gust: 46.7km/h - -
Wind- - West
Pressure: 1026.4 hPa 1018.0 hPa -
Precipitation: 3.6 mm    
Historical Graphs
 
 
Tabular Data for May 23, 2020
Time Temperature Dew Point Pressure Wind Wind Speed Wind Gust Humidity Rainfall Rate (Hourly) solar
00:04 9.9 °C 7.7 °C 1025.7 hPa NW 4.7 km/h 4.8 km/h 86% 0.0 mm 0 W/m2
00:10 9.9 °C 7.7 °C 1025.7 hPa SSW 1.4 km/h 17.7 km/h 86% 0.0 mm 0 W/m2
00:15 9.9 °C 7.7 °C 1025.7 hPa NNW 3.2 km/h 6.4 km/h 86% 0.0 mm 0 W/m2
00:20 9.9 °C 7.7 °C 1025.7 hPa WSW 3.2 km/h 11.3 km/h 86% 0.0 mm 0 W/m2
00:25 9.9 °C 7.7 °C 1025.7 hPa WSW 4.7 km/h 6.4 km/h 86% 0.0 mm 0 W/m2
00:30 9.9 °C 7.7 °C 1025.7 hPa WNW 3.2 km/h 8 km/h 86% 0.0 mm 0 W/m2
00:35 9.9 °C 7.7 °C 1025.7 hPa WNW 6.4 km/h 14.5 km/h 86% 0.0 mm 0 W/m2
00:40 9.9 °C 7.7 °C 1026.1 hPa West 4.7 km/h 11.3 km/h 86% 0.0 mm 0 W/m2
00:45 10 °C 7.8 °C 1026.1 hPa West 6.4 km/h 11.3 km/h 86% 0.0 mm 0 W/m2
00:50 10 °C 7.8 °C 1026.1 hPa WNW 11.1 km/h 14.5 km/h 86% 0.0 mm 0 W/m2
00:55 10 °C 7.8 °C 1026.1 hPa ENE 3.2 km/h 16.1 km/h 86% 0.0 mm 0 W/m2
01:00 10 °C 7.8 °C 1026.1 hPa WNW 3.2 km/h 9.7 km/h 86% 0.0 mm 0 W/m2
01:05 10 °C 7.8 °C 1026.1 hPa WNW 4.7 km/h 14.5 km/h 86% 0.2 mm 0 W/m2
01:10 10 °C 7.8 °C 1026.1 hPa NNW 6.4 km/h 6.4 km/h 86% 0.2 mm 0 W/m2
01:15 9.9 °C 7.7 °C 1026.1 hPa WSW 11.1 km/h 16.1 km/h 86% 0.2 mm 0 W/m2
01:20 9.9 °C 7.7 °C 1026.1 hPa NW 3.2 km/h 14.5 km/h 86% 0.2 mm 0 W/m2
01:25 9.9 °C 7.8 °C 1026.1 hPa NW 6.4 km/h 8 km/h 87% 0.2 mm 0 W/m2
01:30 9.8 °C 7.7 °C 1026.1 hPa NW 9.7 km/h 16.1 km/h 87% 0.2 mm 0 W/m2
01:35 9.8 °C 7.7 °C 1026.1 hPa West 1.4 km/h 6.4 km/h 87% 0.2 mm 0 W/m2
01:40 9.8 °C 7.7 °C 1026.1 hPa NW 6.4 km/h 16.1 km/h 87% 0.2 mm 0 W/m2
01:45 9.8 °C 7.9 °C 1026.1 hPa WNW 6.4 km/h 14.5 km/h 88% 0.2 mm 0 W/m2
01:50 9.7 °C 7.8 °C 1026.1 hPa West 6.4 km/h 17.7 km/h 88% 0.2 mm 0 W/m2
01:55 9.7 °C 7.8 °C 1026.4 hPa NW 4.7 km/h 17.7 km/h 88% 0.5 mm 0 W/m2
02:00 9.7 °C 7.8 °C 1026.1 hPa WSW 3.2 km/h 11.3 km/h 88% 0.5 mm 0 W/m2
02:05 9.7 °C 8 °C 1026.1 hPa NW 6.4 km/h 11.3 km/h 89% 0.2 mm 0 W/m2
02:10 9.7 °C 8 °C 1025.7 hPa West 3.2 km/h 19.3 km/h 89% 0.2 mm 0 W/m2
02:15 9.6 °C 7.9 °C 1025.7 hPa West 3.2 km/h 12.9 km/h 89% 0.2 mm 0 W/m2
02:20 9.6 °C 7.9 °C 1025.7 hPa WNW 7.9 km/h 12.9 km/h 89% 0.2 mm 0 W/m2
02:25 9.6 °C 7.9 °C 1025.7 hPa West 4.7 km/h 17.7 km/h 89% 0.2 mm 0 W/m2
02:30 9.6 °C 8 °C 1025.7 hPa ENE 4.7 km/h 11.3 km/h 90% 0.5 mm 0 W/m2
02:35 9.5 °C 7.9 °C 1025.7 hPa WSW 6.4 km/h 16.1 km/h 90% 0.5 mm 0 W/m2
02:40 9.4 °C 7.8 °C 1025.7 hPa NNW 4.7 km/h 9.7 km/h 90% 0.5 mm 0 W/m2
02:45 9.4 °C 7.8 °C 1025.7 hPa West 1.4 km/h 11.3 km/h 90% 0.5 mm 0 W/m2
02:50 9.4 °C 7.8 °C 1025.7 hPa NW 9.7 km/h 16.1 km/h 90% 0.5 mm 0 W/m2
02:55 9.4 °C 7.8 °C 1025.7 hPa Calm   4.8 km/h 90% 0.2 mm 0 W/m2
03:00 9.3 °C 7.9 °C 1025.7 hPa West 3.2 km/h 4.8 km/h 91% 0.2 mm 0 W/m2
03:05 9.3 °C 7.9 °C 1025.4 hPa NW 3.2 km/h 8 km/h 91% 0.2 mm 0 W/m2
03:10 9.3 °C 7.9 °C 1025.4 hPa NW 1.4 km/h 8 km/h 91% 0.2 mm 0 W/m2
03:15 9.3 °C 7.9 °C 1025.4 hPa ESE 9.7 km/h 9.7 km/h 91% 0.2 mm 0 W/m2
03:20 9.2 °C 7.8 °C 1025.1 hPa West 4.7 km/h 4.8 km/h 91% 0.2 mm 0 W/m2
03:25 9.2 °C 7.8 °C 1025.1 hPa NNE 3.2 km/h 9.7 km/h 91% 0.2 mm 0 W/m2
03:30 9.2 °C 7.8 °C 1025.1 hPa NNE 3.2 km/h 6.4 km/h 91% 0.2 mm 0 W/m2
03:35 9.2 °C 8 °C 1025.1 hPa SSW 4.7 km/h 11.3 km/h 92% 0.2 mm 0 W/m2
03:40 9.2 °C 8 °C 1024.7 hPa West 4.7 km/h 9.7 km/h 92% 0.2 mm 0 W/m2
03:45 9.2 °C 8 °C 1024.7 hPa WSW 6.4 km/h 12.9 km/h 92% 0.2 mm 0 W/m2
03:50 9.2 °C 8 °C 1024.7 hPa East 4.7 km/h 4.8 km/h 92% 0.2 mm 0 W/m2
03:55 9.2 °C 8 °C 1024.4 hPa NW 3.2 km/h 12.9 km/h 92% 0.2 mm 0 W/m2
04:00 9.2 °C 8 °C 1024.4 hPa WSW 1.4 km/h 27.4 km/h 92% 0.2 mm 0 W/m2
04:05 9.2 °C 8 °C 1024.0 hPa South 4.7 km/h 6.4 km/h 92% 0.2 mm 0 W/m2
04:10 9.2 °C 8 °C 1024.0 hPa WNW 3.2 km/h 27.4 km/h 92% 0.2 mm 0 W/m2
04:15 9.2 °C 8 °C 1024.0 hPa NE 6.4 km/h 11.3 km/h 92% 0.2 mm 0 W/m2
04:20 9.2 °C 8 °C 1024.0 hPa WNW 11.1 km/h 17.7 km/h 92% 0.2 mm 0 W/m2
04:25 9.2 °C 8 °C 1024.0 hPa WSW 3.2 km/h 6.4 km/h 92% 0.2 mm 0 W/m2
04:30 9.2 °C 8 °C 1024.0 hPa North 4.7 km/h 8 km/h 92% 0.0 mm 0 W/m2
04:35 9.2 °C 8 °C 1023.7 hPa NNW 3.2 km/h 19.3 km/h 92% 0.0 mm 0 W/m2
04:40 9.2 °C 8 °C 1023.4 hPa NW 14.3 km/h 24.1 km/h 92% 0.0 mm 0 W/m2
04:45 9.2 °C 8 °C 1023.7 hPa West 3.2 km/h 11.3 km/h 92% 0.0 mm 0 W/m2
04:50 9.2 °C 8 °C 1023.7 hPa WNW 1.4 km/h 9.7 km/h 92% 0.0 mm 0 W/m2
04:55 9.2 °C 8 °C 1023.7 hPa NW 4.7 km/h 6.4 km/h 92% 0.0 mm 0 W/m2
05:01 9.2 °C 8 °C 1024.0 hPa North 4.7 km/h 8 km/h 92% 0.0 mm 0 W/m2
05:06 9.2 °C 8 °C 1023.7 hPa NNW 3.2 km/h 6.4 km/h 92% 0.0 mm 0 W/m2
05:11 9.2 °C 8 °C 1023.7 hPa WNW 4.7 km/h 6.4 km/h 92% 0.0 mm 0 W/m2
05:16 9.2 °C 8 °C 1023.7 hPa NW 1.4 km/h 3.2 km/h 92% 0.0 mm 0 W/m2
05:21 9.3 °C 8.1 °C 1023.4 hPa North 3.2 km/h 8 km/h 92% 0.0 mm 0 W/m2
05:26 9.3 °C 8.1 °C 1023.4 hPa West 3.2 km/h 8 km/h 92% 0.0 mm 0 W/m2
05:31 9.3 °C 8.1 °C 1023.4 hPa West 11.1 km/h 19.3 km/h 92% 0.0 mm 0 W/m2
05:36 9.3 °C 8.1 °C 1023.4 hPa WNW 11.1 km/h 17.7 km/h 92% 0.0 mm 0 W/m2
05:41 9.3 °C 8.1 °C 1023.4 hPa NNW 6.4 km/h 11.3 km/h 92% 0.0 mm 0 W/m2
05:46 9.3 °C 8.1 °C 1023.4 hPa WSW 1.4 km/h 17.7 km/h 92% 0.0 mm 0 W/m2
05:51 9.2 °C 8 °C 1023.0 hPa NW 4.7 km/h 4.8 km/h 92% 0.0 mm 0 W/m2
05:56 9.2 °C 8 °C 1023.0 hPa NE 6.4 km/h 11.3 km/h 92% 0.0 mm 0 W/m2
06:01 9.3 °C 7.9 °C 1023.0 hPa Calm   20.9 km/h 91% 0.0 mm 0 W/m2
06:06 9.3 °C 7.9 °C 1023.0 hPa West 3.2 km/h 12.9 km/h 91% 0.0 mm 0 W/m2
06:11 9.3 °C 7.9 °C 1023.0 hPa NW 4.7 km/h 20.9 km/h 91% 0.0 mm 0 W/m2
06:16 9.3 °C 7.9 °C 1023.0 hPa ENE 3.2 km/h 6.4 km/h 91% 0.0 mm 0 W/m2
06:21 9.3 °C 7.9 °C 1023.0 hPa NW 3.2 km/h 17.7 km/h 91% 0.0 mm 0 W/m2
06:26 9.3 °C 7.9 °C 1023.0 hPa WSW 4.7 km/h 11.3 km/h 91% 0.0 mm 0 W/m2
06:31 9.3 °C 7.9 °C 1023.0 hPa NW 11.1 km/h 17.7 km/h 91% 0.0 mm 0 W/m2
06:36 9.3 °C 7.9 °C 1022.7 hPa ENE 6.4 km/h 12.9 km/h 91% 0.0 mm 0 W/m2
06:41 9.3 °C 7.9 °C 1022.7 hPa WNW 4.7 km/h 14.5 km/h 91% 0.0 mm 0 W/m2
06:46 9.3 °C 7.9 °C 1022.7 hPa WNW 7.9 km/h 8 km/h 91% 0.0 mm 0 W/m2
06:51 9.2 °C 7.8 °C 1022.4 hPa WNW 13 km/h 19.3 km/h 91% 0.2 mm 0 W/m2
06:56 9.2 °C 7.8 °C 1022.4 hPa SW 3.2 km/h 9.7 km/h 91% 0.2 mm 0 W/m2
07:01 9.2 °C 7.8 °C 1022.0 hPa NNE 4.7 km/h 22.5 km/h 91% 0.2 mm 0 W/m2
07:06 9.1 °C 7.9 °C 1022.0 hPa WSW 4.7 km/h 14.5 km/h 92% 0.2 mm 0 W/m2
07:11 9.1 °C 7.9 °C 1022.0 hPa North 7.9 km/h 8 km/h 92% 0.2 mm 0 W/m2
07:16 9.1 °C 7.9 °C 1021.7 hPa NW 4.7 km/h 24.1 km/h 92% 0.2 mm 0 W/m2
07:21 9.1 °C 7.9 °C 1021.7 hPa ESE 4.7 km/h 9.7 km/h 92% 0.2 mm 0 W/m2
07:26 9.1 °C 7.9 °C 1021.3 hPa NNW 1.4 km/h 24.1 km/h 92% 0.2 mm 0 W/m2
07:31 9.1 °C 7.9 °C 1021.3 hPa West 9.7 km/h 20.9 km/h 92% 0.2 mm 0 W/m2
07:36 9.1 °C 7.9 °C 1021.3 hPa West 4.7 km/h 14.5 km/h 92% 0.2 mm 0 W/m2
07:41 9.1 °C 7.9 °C 1021.3 hPa NE 3.2 km/h 20.9 km/h 92% 0.2 mm 0 W/m2
07:46 9.1 °C 7.9 °C 1021.3 hPa West 14.3 km/h 14.5 km/h 92% 0.2 mm 5 W/m2
07:51 9 °C 7.8 °C 1021.3 hPa ESE 4.7 km/h 12.9 km/h 92% 0.0 mm 5 W/m2
07:57 9 °C 7.8 °C 1021.3 hPa NE 4.7 km/h 8 km/h 92% 0.0 mm 5 W/m2
08:02 8.9 °C 7.7 °C 1021.7 hPa NNW 9.7 km/h 9.7 km/h 92% 0.0 mm 0 W/m2
08:07 8.9 °C 7.7 °C 1021.7 hPa West 9.7 km/h 22.5 km/h 92% 0.0 mm 5 W/m2
08:12 8.9 °C 7.7 °C 1021.3 hPa SW 3.2 km/h 17.7 km/h 92% 0.0 mm 7 W/m2
08:17 8.9 °C 7.7 °C 1021.3 hPa WSW 4.7 km/h 9.7 km/h 92% 0.0 mm 7 W/m2
08:22 8.9 °C 7.7 °C 1021.0 hPa West 11.1 km/h 20.9 km/h 92% 0.0 mm 12 W/m2
08:27 8.9 °C 7.7 °C 1021.0 hPa ESE 3.2 km/h 11.3 km/h 92% 0.0 mm 14 W/m2
08:32 9 °C 7.8 °C 1021.0 hPa NNW 14.3 km/h 14.5 km/h 92% 0.0 mm 16 W/m2
08:37 9.1 °C 7.9 °C 1021.0 hPa NNE 3.2 km/h 4.8 km/h 92% 0.0 mm 21 W/m2
08:42 9.1 °C 7.9 °C 1021.3 hPa NW 14.3 km/h 14.5 km/h 92% 0.0 mm 32 W/m2
08:47 9.2 °C 8 °C 1020.7 hPa East 3.2 km/h 9.7 km/h 92% 0.0 mm 40 W/m2
08:52 9.2 °C 7.8 °C 1020.7 hPa WNW 6.4 km/h 19.3 km/h 91% 0.0 mm 35 W/m2
08:57 9.3 °C 7.9 °C 1020.7 hPa WNW 17.7 km/h 22.5 km/h 91% 0.0 mm 35 W/m2
09:02 9.3 °C 7.9 °C 1020.7 hPa SW 4.7 km/h 17.7 km/h 91% 0.0 mm 30 W/m2
09:07 9.4 °C 8 °C 1020.7 hPa NW 7.9 km/h 12.9 km/h 91% 0.0 mm 30 W/m2
09:12 9.4 °C 8 °C 1021.0 hPa NW 17.7 km/h 24.1 km/h 91% 0.0 mm 30 W/m2
09:17 9.4 °C 7.8 °C 1020.7 hPa WSW 4.7 km/h 11.3 km/h 90% 0.0 mm 33 W/m2
09:22 9.4 °C 7.8 °C 1020.7 hPa WNW 7.9 km/h 17.7 km/h 90% 0.0 mm 32 W/m2
09:27 9.4 °C 7.8 °C 1020.7 hPa WSW 4.7 km/h 14.5 km/h 90% 0.0 mm 30 W/m2
09:32 9.5 °C 7.9 °C 1020.7 hPa SW 1.4 km/h 16.1 km/h 90% 0.0 mm 32 W/m2
09:37 9.5 °C 7.9 °C 1020.7 hPa SW 7.9 km/h 25.7 km/h 90% 0.0 mm 26 W/m2
09:42 9.5 °C 7.9 °C 1020.7 hPa WNW 7.9 km/h 17.7 km/h 90% 0.0 mm 26 W/m2
09:47 9.5 °C 7.9 °C 1020.7 hPa NW 7.9 km/h 8 km/h 90% 0.0 mm 32 W/m2
09:52 9.6 °C 8 °C 1021.0 hPa WNW 24.1 km/h 24.1 km/h 90% 0.0 mm 32 W/m2
09:57 9.6 °C 8 °C 1021.0 hPa West 4.7 km/h 16.1 km/h 90% 0.0 mm 33 W/m2
10:02 9.6 °C 8 °C 1020.7 hPa WSW 13 km/h 12.9 km/h 90% 0.0 mm 44 W/m2
10:07 9.7 °C 8.1 °C 1020.7 hPa NW 3.2 km/h 11.3 km/h 90% 0.0 mm 42 W/m2
10:12 9.6 °C 8 °C 1020.3 hPa WSW 7.9 km/h 35.4 km/h 90% 0.0 mm 56 W/m2
10:17 9.7 °C 8.1 °C 1020.3 hPa SW 4.7 km/h 20.9 km/h 90% 0.0 mm 42 W/m2
10:22 9.7 °C 8.1 °C 1020.0 hPa West 24.1 km/h 24.1 km/h 90% 0.0 mm 47 W/m2
10:28 9.7 °C 8.1 °C 1020.0 hPa SW 6.4 km/h 29 km/h 90% 0.0 mm 54 W/m2
10:33 9.7 °C 8.1 °C 1020.0 hPa WNW 11.1 km/h 19.3 km/h 90% 0.0 mm 44 W/m2
10:38 9.7 °C 8.1 °C 1020.0 hPa NNE 6.4 km/h 29 km/h 90% 0.0 mm 42 W/m2
10:43 9.7 °C 8.1 °C 1020.3 hPa NNW 7.9 km/h 27.4 km/h 90% 0.0 mm 35 W/m2
10:48 9.7 °C 8.1 °C 1020.7 hPa NW 6.4 km/h 6.4 km/h 90% 0.0 mm 39 W/m2
10:53 9.7 °C 8.1 °C 1020.7 hPa WNW 11.1 km/h 14.5 km/h 90% 0.0 mm 39 W/m2
10:58 9.7 °C 8.1 °C 1020.7 hPa NNW 6.4 km/h 16.1 km/h 90% 0.0 mm 53 W/m2
11:03 9.6 °C 8.2 °C 1020.7 hPa NW 14.3 km/h 29 km/h 91% 0.0 mm 46 W/m2
11:08 9.6 °C 8.2 °C 1020.3 hPa WSW 7.9 km/h 16.1 km/h 91% 0.0 mm 56 W/m2
11:13 9.6 °C 8.2 °C 1020.7 hPa WNW 6.4 km/h 29 km/h 91% 0.0 mm 54 W/m2
11:18 9.6 °C 8.2 °C 1020.7 hPa WNW 13 km/h 19.3 km/h 91% 0.0 mm 54 W/m2
11:23 9.7 °C 8.3 °C 1020.7 hPa NNW 13 km/h 27.4 km/h 91% 0.0 mm 60 W/m2
11:28 9.7 °C 8.3 °C 1020.7 hPa East 6.4 km/h 25.7 km/h 91% 0.0 mm 86 W/m2
11:33 9.7 °C 8.3 °C 1020.7 hPa West 3.2 km/h 14.5 km/h 91% 0.0 mm 100 W/m2
11:38 9.7 °C 8.3 °C 1020.7 hPa WNW 11.1 km/h 16.1 km/h 91% 0.0 mm 90 W/m2
11:43 9.7 °C 8.3 °C 1020.7 hPa WNW 19.5 km/h 19.3 km/h 91% 0.0 mm 60 W/m2
11:49 9.7 °C 8.3 °C 1020.7 hPa West 4.7 km/h 20.9 km/h 91% 0.0 mm 67 W/m2
11:54 9.7 °C 8.3 °C 1020.7 hPa WNW 9.7 km/h 33.8 km/h 91% 0.0 mm 77 W/m2
11:59 9.8 °C 8.4 °C 1020.3 hPa SSE 4.7 km/h 17.7 km/h 91% 0.0 mm 79 W/m2
12:04 9.8 °C 8.4 °C 1020.0 hPa NW 25.7 km/h 25.7 km/h 91% 0.0 mm 67 W/m2
12:09 9.8 °C 8.4 °C 1020.3 hPa NW 13 km/h 19.3 km/h 91% 0.0 mm 74 W/m2
12:14 9.8 °C 8.4 °C 1020.0 hPa WNW 9.7 km/h 25.7 km/h 91% 0.0 mm 58 W/m2
12:19 9.8 °C 8.4 °C 1020.0 hPa NW 14.3 km/h 19.3 km/h 91% 0.0 mm 67 W/m2
12:24 9.9 °C 8.5 °C 1019.6 hPa North 3.2 km/h 11.3 km/h 91% 0.0 mm 54 W/m2
12:29 9.9 °C 8.5 °C 1019.6 hPa NNW 4.7 km/h 16.1 km/h 91% 0.0 mm 91 W/m2
12:34 9.9 °C 8.5 °C 1019.3 hPa North 16.3 km/h 32.2 km/h 91% 0.0 mm 67 W/m2
12:39 9.9 °C 8.3 °C 1019.6 hPa WNW 11.1 km/h 16.1 km/h 90% 0.0 mm 51 W/m2
12:44 10 °C 8.4 °C 1019.3 hPa NNW 9.7 km/h 24.1 km/h 90% 0.0 mm 51 W/m2
12:49 10 °C 8.4 °C 1019.6 hPa WNW 7.9 km/h 17.7 km/h 90% 0.0 mm 77 W/m2
12:54 10.1 °C 8.5 °C 1019.6 hPa SSW 9.7 km/h 17.7 km/h 90% 0.0 mm 91 W/m2
12:59 10.1 °C 8.5 °C 1019.0 hPa NW 4.7 km/h 24.1 km/h 90% 0.0 mm 83 W/m2
13:04 10.1 °C 8.5 °C 1019.6 hPa NW 9.7 km/h 29 km/h 90% 0.0 mm 65 W/m2
13:10 10.2 °C 8.6 °C 1019.6 hPa North 7.9 km/h 17.7 km/h 90% 0.0 mm 47 W/m2
13:15 10.2 °C 8.6 °C 1019.3 hPa WNW 13 km/h 29 km/h 90% 0.0 mm 54 W/m2
13:20 10.2 °C 8.6 °C 1019.0 hPa NNW 6.4 km/h 12.9 km/h 90% 0.0 mm 69 W/m2
13:25 10.2 °C 8.6 °C 1019.0 hPa NNW 13 km/h 46.7 km/h 90% 0.0 mm 49 W/m2
13:30 10.2 °C 8.6 °C 1019.3 hPa NW 13 km/h 29 km/h 90% 0.0 mm 49 W/m2
13:35 10.2 °C 8.6 °C 1019.3 hPa West 20.9 km/h 45.1 km/h 90% 0.0 mm 54 W/m2
13:40 10.2 °C 8.6 °C 1019.3 hPa WNW 27.4 km/h 29 km/h 90% 0.0 mm 32 W/m2
13:45 10.3 °C 8.7 °C 1019.3 hPa WNW 3.2 km/h 14.5 km/h 90% 0.0 mm 42 W/m2
13:50 10.3 °C 8.7 °C 1019.3 hPa WSW 13 km/h 14.5 km/h 90% 0.0 mm 46 W/m2
13:55 10.3 °C 8.7 °C 1019.0 hPa WSW 14.3 km/h 30.6 km/h 90% 0.0 mm 98 W/m2
14:00 10.4 °C 8.8 °C 1018.6 hPa WSW 19.5 km/h 24.1 km/h 90% 0.0 mm 84 W/m2
14:05 10.4 °C 8.8 °C 1019.0 hPa West 6.4 km/h 30.6 km/h 90% 0.0 mm 60 W/m2
14:10 10.4 °C 8.8 °C 1019.0 hPa West 11.1 km/h 14.5 km/h 90% 0.0 mm 60 W/m2
14:15 10.4 °C 8.8 °C 1018.3 hPa NW 6.4 km/h 14.5 km/h 90% 0.0 mm 79 W/m2
14:20 10.4 °C 8.8 °C 1019.0 hPa NW 16.3 km/h 22.5 km/h 90% 0.0 mm 44 W/m2
14:25 10.4 °C 8.8 °C 1018.6 hPa NNE 3.2 km/h 12.9 km/h 90% 0.0 mm 37 W/m2
14:30 10.4 °C 8.8 °C 1018.6 hPa WNW 11.1 km/h 14.5 km/h 90% 0.0 mm 51 W/m2
14:35 10.4 °C 8.8 °C 1018.6 hPa WNW 11.1 km/h 24.1 km/h 90% 0.0 mm 54 W/m2
14:40 10.4 °C 8.8 °C 1018.6 hPa West 14.3 km/h 14.5 km/h 90% 0.0 mm 47 W/m2
14:45 10.4 °C 8.8 °C 1018.3 hPa West 17.7 km/h 30.6 km/h 90% 0.0 mm 53 W/m2
14:50 10.5 °C 8.9 °C 1019.0 hPa West 6.4 km/h 22.5 km/h 90% 0.0 mm 60 W/m2
14:55 10.6 °C 9 °C 1019.0 hPa NW 20.9 km/h 33.8 km/h 90% 0.0 mm 53 W/m2
15:00 10.7 °C 9 °C 1018.6 hPa NW 16.3 km/h 19.3 km/h 89% 0.0 mm 42 W/m2
15:05 10.7 °C 9 °C 1018.6 hPa NW 3.2 km/h 33.8 km/h 89% 0.0 mm 62 W/m2
15:10 10.7 °C 9 °C 1018.6 hPa West 30.6 km/h 30.6 km/h 89% 0.0 mm 63 W/m2
15:15 10.7 °C 9 °C 1018.0 hPa NNW 9.7 km/h 29 km/h 89% 0.0 mm 65 W/m2
15:20 10.7 °C 9 °C 1018.3 hPa NNW 7.9 km/h 24.1 km/h 89% 0.0 mm 58 W/m2
15:25 10.8 °C 9.1 °C 1018.6 hPa NW 7.9 km/h 35.4 km/h 89% 0.0 mm 58 W/m2
15:30 10.8 °C 9.1 °C 1018.3 hPa WSW 6.4 km/h 14.5 km/h 89% 0.0 mm 40 W/m2
15:35 10.8 °C 9.1 °C 1018.6 hPa WNW 33.8 km/h 33.8 km/h 89% 0.0 mm 51 W/m2
15:40 10.8 °C 9.1 °C 1018.6 hPa WNW 11.1 km/h 16.1 km/h 89% 0.0 mm 37 W/m2
15:45 10.8 °C 9.2 °C 1018.3 hPa NW 13 km/h 30.6 km/h 90% 0.0 mm 56 W/m2
15:50 10.7 °C 9 °C 1018.3 hPa South 17.7 km/h 17.7 km/h 89% 0.0 mm 44 W/m2
15:55 10.7 °C 9.1 °C 1018.3 hPa North 14.3 km/h 22.5 km/h 90% 0.0 mm 60 W/m2
16:00 10.7 °C 9.1 °C 1018.3 hPa West 4.7 km/h 19.3 km/h 90% 0.0 mm 32 W/m2
16:05 10.7 °C 9.1 °C 1018.3 hPa West 11.1 km/h 32.2 km/h 90% 0.0 mm 62 W/m2
16:10 10.6 °C 9 °C 1018.6 hPa WNW 4.7 km/h 12.9 km/h 90% 0.0 mm 21 W/m2
16:15 10.6 °C 9.2 °C 1018.3 hPa West 17.7 km/h 17.7 km/h 91% 0.0 mm 28 W/m2
16:20 10.6 °C 9.2 °C 1018.3 hPa NE 4.7 km/h 11.3 km/h 91% 0.0 mm 21 W/m2
16:25 10.6 °C 9.2 °C 1018.3 hPa WNW 11.1 km/h 14.5 km/h 91% 0.0 mm 23 W/m2
16:30 10.6 °C 9.2 °C 1018.6 hPa WSW 14.3 km/h 27.4 km/h 91% 0.0 mm 30 W/m2
16:35 10.6 °C 9.2 °C 1018.6 hPa SW 22.7 km/h 22.5 km/h 91% 0.0 mm 25 W/m2
16:40 10.6 °C 9.2 °C 1018.3 hPa West 9.7 km/h 16.1 km/h 91% 0.0 mm 19 W/m2
16:45 10.6 °C 9.2 °C 1018.3 hPa WNW 3.2 km/h 19.3 km/h 91% 0.0 mm 14 W/m2
16:50 10.5 °C 9.1 °C 1018.3 hPa West 3.2 km/h 22.5 km/h 91% 0.0 mm 12 W/m2
16:55 10.5 °C 9.3 °C 1018.3 hPa West 4.7 km/h 4.8 km/h 92% 0.0 mm 19 W/m2
17:00 10.5 °C 9.3 °C 1018.3 hPa West 13 km/h 17.7 km/h 92% 0.0 mm 12 W/m2
17:05 10.6 °C 9.4 °C 1018.3 hPa West 16.3 km/h 19.3 km/h 92% 0.0 mm 12 W/m2
17:10 10.6 °C 9.4 °C 1018.3 hPa WNW 6.4 km/h 32.2 km/h 92% 0.0 mm 11 W/m2
17:15 10.6 °C 9.4 °C 1018.6 hPa SSW 4.7 km/h 11.3 km/h 92% 0.0 mm 11 W/m2
17:21 10.6 °C 9.4 °C 1018.3 hPa West 14.3 km/h 32.2 km/h 92% 0.0 mm 11 W/m2
17:26 10.5 °C 9.3 °C 1018.3 hPa West 13 km/h 16.1 km/h 92% 0.0 mm 11 W/m2
17:31 10.6 °C 9.4 °C 1018.3 hPa WNW 6.4 km/h 25.7 km/h 92% 0.0 mm 7 W/m2
17:36 10.6 °C 9.4 °C 1018.6 hPa NNW 4.7 km/h 24.1 km/h 92% 0.0 mm 5 W/m2
17:41 10.6 °C 9.5 °C 1019.0 hPa WSW 4.7 km/h 16.1 km/h 93% 0.0 mm 5 W/m2
17:46 10.7 °C 9.6 °C 1019.0 hPa North 6.4 km/h 20.9 km/h 93% 0.0 mm 5 W/m2
17:51 10.7 °C 9.6 °C 1019.0 hPa WSW 30.6 km/h 30.6 km/h 93% 0.0 mm 0 W/m2
17:56 10.8 °C 9.7 °C 1019.0 hPa NW 4.7 km/h 22.5 km/h 93% 0.0 mm 0 W/m2
18:01 10.8 °C 9.7 °C 1019.0 hPa West 24.1 km/h 30.6 km/h 93% 0.0 mm 0 W/m2
18:06 10.8 °C 9.7 °C 1019.0 hPa WNW 13 km/h 19.3 km/h 93% 0.0 mm 0 W/m2
18:11 10.8 °C 9.7 °C 1019.3 hPa SSW 4.7 km/h 11.3 km/h 93% 0.0 mm 0 W/m2
18:16 10.8 °C 9.7 °C 1019.0 hPa SW 22.7 km/h 24.1 km/h 93% 0.0 mm 0 W/m2
18:21 10.8 °C 9.7 °C 1019.0 hPa West 4.7 km/h 14.5 km/h 93% 0.2 mm 0 W/m2
18:26 10.8 °C 9.7 °C 1019.3 hPa North 13 km/h 19.3 km/h 93% 0.2 mm 0 W/m2
18:31 10.8 °C 9.7 °C 1019.3 hPa West 6.4 km/h 12.9 km/h 93% 0.2 mm 0 W/m2
18:36 10.9 °C 9.8 °C 1019.0 hPa West 13 km/h 16.1 km/h 93% 0.2 mm 0 W/m2
18:41 10.9 °C 9.8 °C 1019.3 hPa NW 4.7 km/h 19.3 km/h 93% 0.2 mm 0 W/m2
18:46 10.9 °C 9.8 °C 1019.3 hPa NNW 9.7 km/h 12.9 km/h 93% 0.2 mm 0 W/m2
18:51 11 °C 9.9 °C 1019.3 hPa West 6.4 km/h 22.5 km/h 93% 0.2 mm 0 W/m2
18:56 11 °C 9.9 °C 1019.3 hPa WNW 13 km/h 20.9 km/h 93% 0.2 mm 0 W/m2
19:01 11 °C 9.9 °C 1019.3 hPa WNW 20.9 km/h 20.9 km/h 93% 0.2 mm 0 W/m2
19:06 11 °C 9.9 °C 1019.6 hPa West 24.1 km/h 24.1 km/h 93% 0.2 mm 0 W/m2
19:11 11.1 °C 10 °C 1019.6 hPa WNW 17.7 km/h 24.1 km/h 93% 0.2 mm 0 W/m2
19:16 11.1 °C 10 °C 1019.6 hPa WNW 17.7 km/h 37 km/h 93% 0.2 mm 0 W/m2
19:21 11.1 °C 10 °C 1019.6 hPa NW 11.1 km/h 16.1 km/h 93% 0.0 mm 0 W/m2
19:26 11.1 °C 10 °C 1019.6 hPa West 11.1 km/h 20.9 km/h 93% 0.0 mm 0 W/m2
19:31 11.1 °C 10 °C 1019.6 hPa NW 13 km/h 16.1 km/h 93% 0.0 mm 0 W/m2
19:37 11.1 °C 10 °C 1019.6 hPa West 11.1 km/h 19.3 km/h 93% 0.0 mm 0 W/m2
19:42 11.1 °C 10 °C 1019.6 hPa WSW 19.5 km/h 22.5 km/h 93% 0.0 mm 0 W/m2
19:47 11.2 °C 10.1 °C 1019.6 hPa WSW 7.9 km/h 17.7 km/h 93% 0.0 mm 0 W/m2
19:52 11.2 °C 10.1 °C 1019.6 hPa West 6.4 km/h 17.7 km/h 93% 0.0 mm 0 W/m2
19:57 11.2 °C 10.1 °C 1019.6 hPa SSW 13 km/h 16.1 km/h 93% 0.0 mm 0 W/m2
20:02 11.2 °C 10.3 °C 1019.6 hPa NW 4.7 km/h 11.3 km/h 94% 0.2 mm 0 W/m2
20:07 11.2 °C 10.3 °C 1019.6 hPa SW 7.9 km/h 17.7 km/h 94% 0.2 mm 0 W/m2
20:12 11.2 °C 10.3 °C 1019.6 hPa NNW 4.7 km/h 22.5 km/h 94% 0.5 mm 0 W/m2
20:17 11.2 °C 10.3 °C 1020.0 hPa WSW 17.7 km/h 32.2 km/h 94% 0.5 mm 0 W/m2
20:22 11.3 °C 10.4 °C 1020.0 hPa NW 13 km/h 12.9 km/h 94% 0.5 mm 0 W/m2
20:27 11.3 °C 10.4 °C 1020.0 hPa WNW 13 km/h 25.7 km/h 94% 0.5 mm 0 W/m2
20:32 11.3 °C 10.2 °C 1020.0 hPa WNW 11.1 km/h 22.5 km/h 93% 0.5 mm 0 W/m2
20:37 11.3 °C 10.2 °C 1020.3 hPa West 3.2 km/h 14.5 km/h 93% 0.5 mm 0 W/m2
20:42 11.3 °C 10.2 °C 1020.3 hPa WNW 19.5 km/h 20.9 km/h 93% 0.5 mm 0 W/m2
20:47 11.3 °C 10.2 °C 1020.3 hPa West 13 km/h 17.7 km/h 93% 0.5 mm 0 W/m2
20:52 11.4 °C 10.3 °C 1020.3 hPa West 16.3 km/h 17.7 km/h 93% 0.5 mm 0 W/m2
20:57 11.4 °C 10.3 °C 1020.3 hPa WNW 7.9 km/h 17.7 km/h 93% 0.5 mm 0 W/m2
21:02 11.3 °C 10.2 °C 1020.3 hPa NW 14.3 km/h 29 km/h 93% 0.5 mm 0 W/m2
21:07 11.3 °C 10.2 °C 1020.7 hPa West 9.7 km/h 20.9 km/h 93% 0.5 mm 0 W/m2
21:12 11.4 °C 10.3 °C 1020.7 hPa South 24.1 km/h 24.1 km/h 93% 0.2 mm 0 W/m2
21:17 11.4 °C 10.3 °C 1020.7 hPa West 16.3 km/h 37 km/h 93% 0.2 mm 0 W/m2
21:22 11.4 °C 10.3 °C 1020.7 hPa WNW 11.1 km/h 19.3 km/h 93% 0.2 mm 0 W/m2
21:27 11.4 °C 10.3 °C 1021.0 hPa West 9.7 km/h 35.4 km/h 93% 0.2 mm 0 W/m2
21:32 11.4 °C 10.3 °C 1021.3 hPa WNW 16.3 km/h 20.9 km/h 93% 0.5 mm 0 W/m2
21:37 11.4 °C 10.5 °C 1021.3 hPa WNW 9.7 km/h 19.3 km/h 94% 0.5 mm 0 W/m2
21:42 11.3 °C 10.4 °C 1021.7 hPa West 16.3 km/h 37 km/h 94% 1.5 mm 0 W/m2
21:47 11.1 °C 10 °C 1021.7 hPa WNW 19.5 km/h 32.2 km/h 93% 1.8 mm 0 W/m2
21:52 10.8 °C 9.7 °C 1021.7 hPa West 9.7 km/h 19.3 km/h 93% 2.0 mm 0 W/m2
21:57 10.7 °C 9.5 °C 1021.7 hPa WNW 13 km/h 32.2 km/h 92% 2.0 mm 0 W/m2
22:02 10.6 °C 9.4 °C 1022.0 hPa West 13 km/h 20.9 km/h 92% 1.8 mm 0 W/m2
22:07 10.5 °C 9.3 °C 1022.0 hPa West 9.7 km/h 19.3 km/h 92% 1.8 mm 0 W/m2
22:12 10.4 °C 9.2 °C 1022.0 hPa NW 17.7 km/h 17.7 km/h 92% 1.8 mm 0 W/m2
22:17 10.4 °C 9.2 °C 1022.0 hPa WNW 16.3 km/h 20.9 km/h 92% 1.8 mm 0 W/m2
22:22 10.4 °C 9.2 °C 1022.0 hPa WSW 14.3 km/h 19.3 km/h 92% 1.8 mm 0 W/m2
22:27 10.4 °C 9.2 °C 1022.4 hPa West 13 km/h 20.9 km/h 92% 1.8 mm 0 W/m2
22:32 10.4 °C 9.2 °C 1022.4 hPa West 13 km/h 16.1 km/h 92% 1.5 mm 0 W/m2
22:37 10.4 °C 9 °C 1022.7 hPa West 19.5 km/h 24.1 km/h 91% 1.5 mm 0 W/m2
22:42 10.4 °C 9 °C 1022.7 hPa West 14.3 km/h 20.9 km/h 91% 0.2 mm 0 W/m2
22:47 10.3 °C 8.9 °C 1022.7 hPa WNW 6.4 km/h 20.9 km/h 91% 0.2 mm 0 W/m2
22:52 10.3 °C 9.1 °C 1022.7 hPa WSW 6.4 km/h 16.1 km/h 92% 0.0 mm 0 W/m2
22:57 10.2 °C 9 °C 1022.7 hPa WNW 9.7 km/h 12.9 km/h 92% 0.0 mm 0 W/m2
23:02 10.1 °C 8.9 °C 1022.7 hPa WSW 13 km/h 19.3 km/h 92% 0.0 mm 0 W/m2
23:07 10.1 °C 8.9 °C 1023.0 hPa West 6.4 km/h 12.9 km/h 92% 0.0 mm 0 W/m2
23:12 10.1 °C 8.9 °C 1023.0 hPa West 9.7 km/h 9.7 km/h 92% 0.0 mm 0 W/m2
23:17 10.1 °C 9 °C 1023.4 hPa WSW 7.9 km/h 14.5 km/h 93% 0.0 mm 0 W/m2
23:22 10 °C 8.9 °C 1023.4 hPa WNW 16.3 km/h 16.1 km/h 93% 0.0 mm 0 W/m2
23:27 9.8 °C 8.6 °C 1023.7 hPa NNW 4.7 km/h 19.3 km/h 92% 0.0 mm 0 W/m2
23:32 9.2 °C 7.5 °C 1024.0 hPa WNW 9.7 km/h 22.5 km/h 89% 0.0 mm 0 W/m2
23:37 8.8 °C 7.1 °C 1024.0 hPa WNW 11.1 km/h 16.1 km/h 89% 0.0 mm 0 W/m2
23:42 8.4 °C 6.7 °C 1024.0 hPa West 11.1 km/h 19.3 km/h 89% 0.0 mm 0 W/m2
23:47 8.1 °C 6.4 °C 1024.0 hPa WNW 7.9 km/h 20.9 km/h 89% 0.0 mm 0 W/m2
23:52 7.9 °C 6.2 °C 1024.4 hPa WNW 6.4 km/h 14.5 km/h 89% 0.0 mm 0 W/m2
23:57 7.7 °C 6 °C 1024.4 hPa WSW 13 km/h 16.1 km/h 89% 0.0 mm 0 W/m2
Juneau County Weather
Compliments of Weather Underground - 4 mb